Weather in Kotelnikov

Russia / Volgograd Oblast     47°38′14″N   43°11′13″E
temp.,
°C
wind,
m/s
gust,
m/s
humid.,
%
clouds,
%
prec.,
mm/h
press.,
hPa
HPBL,
m
14 june, mon
mon1400:00+19n227113 0.0 101211
03:00+18nw2275100 0.0 101211
06:00+20nnw1274100 0.0 101276
09:00+24ne2258100 0.0 1012797
12:00+26ne214640 0.0 10121938
15:00+26nw5453100 0.0 1012845
18:00+24nnw4758100 0.0 1011251
21:00+22e3667100 0.0 1011155
15 june, tue
tue1500:00+21ene357199 0.0 1011111
03:00+19ene338182 0.0 101040
06:00+20ne34784 0.0 1010156
09:00+24nne32600 0.0 1010915
12:00+27nw444553 0.0 10101819
15:00+28wnw3442100 0.0 10101744
18:00+26w235288 0.0 1009155
21:00+22w225873 0.0 101014
16 june, wed
wed1600:00+21wnw11635 0.0 100911
03:00+21sw226723 0.0 101012
06:00+22nne11660 0.0 101066
09:00+27e22480 0.0 1010846
12:00+30ese22400 0.0 10101874
15:00+31ene22352 0.0 10092209
18:00+31ne13370 0.0 10091295
21:00+25ne495739 0.0 1010153
17 june, thu
thu1700:00+24ene7145612 0.0 1010371
03:00+22ene513670 0.1 1011296
06:00+23ene613690 0.0 1011441
09:00+28ene81050100 0.0 1011842
12:00+31ene784197 0.0 10111513
15:00+32ene8936100 0.0 10112054
18:00+29ne9114679 0.0 10111132
21:00+24ne11186475 0.0 1012638
18 june, fri
fri1800:00+21ene9167499 0.8 1014620
03:00+18ne7146245 1.6 1016521
06:00+18ne814635 0.0 1018666
09:00+19ene71259100 0.4 1019720
12:00+22e595080 0.0 1019917
15:00+27ene88355 0.0 10191758
18:00+25ene79405 0.0 10191047
21:00+21ne714445 0.0 1021445